| time (UTC) | temp F | wind direction | speed knots | gust knots | rain 1hr in | rain 24hr in | rain mn in | humidity % | barometer mb |
| 20260503220004 | 61 | 246 | 19.1 | 27.8 | 0.00 | 0.00 | 0.00 | 40 | 1011.7 |
| 20260503214004 | 61 | 243 | 18.2 | 27.8 | 0.00 | 0.00 | 0.00 | 34 | 1011.5 |
| 20260503213005 | 61 | 240 | 17.4 | 24.3 | 0.00 | 0.00 | 0.00 | 35 | 1011.8 |
| 20260503212004 | 61 | 250 | 20.9 | 20.0 | 0.00 | 0.00 | 0.00 | 34 | 1011.7 |
| 20260503211004 | 61 | 233 | 15.6 | 19.1 | 0.00 | 0.00 | 0.00 | 34 | 1011.7 |
| 20260503205004 | 62 | 238 | 19.1 | 20.0 | 0.00 | 0.00 | 0.00 | 31 | 1011.9 |
| 20260503204005 | 62 | 240 | 22.6 | 26.1 | 0.00 | 0.00 | 0.00 | 31 | 1012.1 |
| 20260503203004 | 62 | 232 | 19.1 | 24.3 | 0.00 | 0.00 | 0.00 | 29 | 1012.0 |
| 20260503202004 | 62 | 238 | 14.8 | 18.2 | 0.00 | 0.00 | 0.00 | 33 | 1012.1 |
| 20260503201005 | 62 | 239 | 20.0 | 25.2 | 0.00 | 0.00 | 0.00 | 30 | 1012.4 |
| 20260503195005 | 64 | 221 | 14.8 | 22.6 | 0.00 | 0.00 | 0.00 | 29 | 1012.3 |
| 20260503194005 | 63 | 236 | 14.8 | 24.3 | 0.00 | 0.00 | 0.00 | 30 | 1012.4 |
| 20260503193004 | 63 | 228 | 11.3 | 24.3 | 0.00 | 0.00 | 0.00 | 31 | 1012.7 |
| 20260503192004 | 63 | 234 | 18.2 | 22.6 | 0.00 | 0.00 | 0.00 | 31 | 1012.7 |
| 20260503190004 | 62 | 223 | 14.8 | 20.0 | 0.00 | 0.00 | 0.00 | 30 | 1013.1 |
| 20260503185005 | 63 | 240 | 14.8 | 24.3 | 0.00 | 0.00 | 0.00 | 32 | 1013.2 |
| 20260503184004 | 63 | 236 | 19.1 | 19.1 | 0.00 | 0.00 | 0.00 | 29 | 1013.4 |
| 20260503183004 | 63 | 237 | 17.4 | 25.2 | 0.00 | 0.00 | 0.00 | 29 | 1013.4 |
| 20260503182005 | 62 | 240 | 17.4 | 20.0 | 0.00 | 0.00 | 0.00 | 29 | 1013.4 |
| 20260503181005 | 62 | 236 | 20.9 | 24.3 | 0.00 | 0.00 | 0.00 | 31 | 1013.5 |
| 20260503180005 | 62 | 232 | 14.8 | 22.6 | 0.00 | 0.00 | 0.00 | 32 | 1013.7 |
| 20260503175004 | 62 | 240 | 15.6 | 22.6 | 0.00 | 0.00 | 0.00 | 28 | 1014.0 |
| 20260503174006 | 62 | 238 | 18.2 | 25.2 | 0.00 | 0.00 | 0.00 | 29 | 1014.2 |
| 20260503173004 | 62 | 232 | 19.1 | 26.1 | 0.00 | 0.00 | 0.00 | 27 | 1014.2 |
| 20260503172005 | 62 | 236 | 18.2 | 24.3 | 0.00 | 0.00 | 0.00 | 32 | 1014.4 |
| 20260503151004 | 56 | 241 | 12.2 | 18.2 | 0.00 | 0.00 | 0.00 | 46 | 1015.7 |
| 20260502231006 | 48 | 244 | 0.0 | 2.6 | 0.00 | 0.00 | 0.00 | 41 | 1016.7 |
| 20260502230008 | 49 | 254 | 0.9 | 8.7 | 0.00 | 0.00 | 0.00 | 39 | 1016.8 |
| 20260502225005 | 49 | 258 | 1.7 | 6.1 | 0.00 | 0.00 | 0.00 | 40 | 1017.0 |
| 20260502224011 | 49 | 227 | 2.6 | 6.1 | 0.00 | 0.00 | 0.00 | 40 | 1016.9 |
| 20260502222006 | 49 | 224 | 5.2 | 6.1 | 0.00 | 0.00 | 0.00 | 40 | 1017.0 |
| 20260502221007 | 48 | 25 | 0.0 | 4.3 | 0.00 | 0.00 | 0.00 | 42 | 1017.2 |